Weather History for KGRF - August, 2013

Change the Weather History Date:

Friday, August 16, 2013

  Actual Average (KOLM) Record (KOLM)
Temperature  
Mean Temperature 72 °F 64 °F  
Max Temperature 84 °F 78 °F 96 °F (2012)
Min Temperature 60 °F 51 °F 40 °F (2000)
Degree Days  
Heating Degree Days 0 2  
Month to date heating degree days 32  
Since 1 June heating degree days 300  
Since 1 July heating degree days 112  
Cooling Degree Days 6 2  
Month to date cooling degree days 32  
Year to date cooling degree days 89  
Since 1 June cooling degree days 86  
Growing Degree Days 22 (Base 50)    
Moisture  
Dew Point 60 °F    
Average Humidity 82    
Maximum Humidity 100    
Minimum Humidity 34    
Precipitation  
Precipitation 0.00 in 0.03 in 0.58 in (1995)
Month to date precipitation 0.34  
Year to date precipitation 27.00  
Sea Level Pressure  
Sea Level Pressure 30.00 in    
Wind  
Wind Speed 3 mph (WSW)    
Max Wind Speed 13 mph    
Max Gust Speed 17 mph    
Visibility 9 miles    
Events      
T = Trace of Precipitation, MM = Missing Value Source: NWS Daily Summary

Daily Weather History Graph

Daily Weather History Graph

Search for Another Location

Airport or City:

Trip Planner

Search our weather history database for the weather conditions in past years. The results will help you decide how hot, cold, wet, or windy it might be!

Date:

Astronomy

Aug. 16, 2013 Rise Set
Actual Time 6:09 AM PDT 8:18 PM PDT
Civil Twilight 5:35 AM PDT 8:52 PM PDT
Nautical Twilight 4:54 AM PDT 9:33 PM PDT
Astronomical Twilight 4:08 AM PDT 10:19 PM PDT
Moon 4:51 PM PDT (8/16) 1:09 AM PDT (8/16)
Length of Visible Light 15h 16m
Length of Day
14h 09m
Waxing Gibbous, 76% of the Moon is Illuminated
Aug 16
Waxing Gibbous
Aug 20
Full
Aug 28
Last Quarter
Sep 5
New
Sep 12
First Quarter

Hourly Weather History & Observations

Time (PDT) Temp. Heat Index Dew Point Humidity Pressure Visibility Wind Dir Wind Speed Gust Speed Precip Events Conditions
12:03 AM 62.6 °F - 62.6 °F 100% 29.99 in 10.0 mi Calm Calm - N/A   Mostly Cloudy
1:28 AM 60.8 °F - 60.8 °F 100% 29.98 in 10.0 mi SE 3.5 mph - N/A   Mostly Cloudy
1:58 AM 62.2 °F - 61.9 °F 99% 29.99 in 10.0 mi Calm Calm - N/A   Scattered Clouds
2:23 AM 62.6 °F - 62.6 °F 100% 29.98 in 10.0 mi WNW 1.2 mph - N/A   Mostly Cloudy
2:58 AM 62.1 °F - 61.7 °F 99% 29.99 in 10.0 mi West 5.8 mph - N/A   Overcast
3:58 AM 62.6 °F - 62.6 °F 100% 30.00 in 10.0 mi Calm Calm - N/A   Overcast
4:58 AM 62.4 °F - 62.1 °F 99% 30.00 in 10.0 mi WSW 4.6 mph - N/A   Overcast
5:22 AM 62.6 °F - 62.6 °F 100% 29.99 in 10.0 mi West 3.5 mph - N/A   Overcast
5:42 AM 62.6 °F - 60.8 °F 94% 29.99 in 10.0 mi Calm Calm - N/A   Overcast
5:52 AM 62.6 °F - 60.8 °F 94% 29.99 in 10.0 mi Calm Calm - N/A   Overcast
5:58 AM 61.7 °F - 61.3 °F 99% 30.00 in 10.0 mi Calm Calm - N/A   Overcast
6:18 AM 60.8 °F - 60.8 °F 100% 29.99 in 10.0 mi WNW 2.3 mph - N/A   Overcast
6:33 AM 60.8 °F - 60.8 °F 100% 30.00 in 10.0 mi Calm Calm - N/A   Overcast
6:43 AM 60.8 °F - 60.8 °F 100% 30.00 in 10.0 mi Calm Calm - N/A   Overcast
6:58 AM 61.7 °F - 61.3 °F 99% 30.01 in 10.0 mi Calm Calm - N/A   Overcast
7:10 AM 62.6 °F - 60.8 °F 94% 30.01 in 6.0 mi SSE 2.3 mph - N/A   Overcast
7:17 AM 62.6 °F - 60.8 °F 94% 30.01 in 2.0 mi SE 2.3 mph - N/A   Overcast
7:19 AM 62.6 °F - 60.8 °F 94% 30.01 in 2.0 mi East 1.2 mph - N/A   Overcast
7:23 AM 62.6 °F - 62.6 °F 100% 30.01 in 2.0 mi Calm Calm - N/A   Overcast
7:48 AM 62.6 °F - 62.6 °F 100% 30.01 in 3.0 mi WSW 2.3 mph - N/A   Overcast
7:58 AM 62.4 °F - 62.1 °F 99% 30.01 in 3.0 mi WNW 2.3 mph - N/A   Overcast
8:23 AM 62.6 °F - 62.6 °F 100% 30.01 in 6.0 mi West 2.3 mph - N/A   Overcast
8:58 AM 64.2 °F - 61.5 °F 91% 30.02 in 10.0 mi Calm Calm - N/A   Overcast
9:55 AM 66.9 °F - 61.7 °F 83% 30.01 in 10.0 mi Variable 3.5 mph - N/A   Overcast
10:55 AM 70.5 °F - 62.1 °F 74% 30.01 in 10.0 mi Variable 3.5 mph - N/A   Scattered Clouds
11:55 AM 73.2 °F - 62.6 °F 69% 30.01 in 10.0 mi Calm Calm - N/A   Scattered Clouds
12:58 PM 75.9 °F - 63.0 °F 64% 30.01 in 10.0 mi Calm Calm - N/A   Partly Cloudy
1:58 PM 79.0 °F - 61.3 °F 55% 30.00 in 10.0 mi Variable 6.9 mph - N/A   Partly Cloudy
2:58 PM 81.3 °F 81.7 °F 59.5 °F 47% 29.99 in 10.0 mi SSW 11.5 mph 17.3 mph N/A   Clear
3:58 PM 82.0 °F 81.5 °F 55.6 °F 40% 29.98 in 10.0 mi SSW 10.4 mph - N/A   Clear
4:58 PM 83.5 °F - 52.2 °F 34% 29.97 in 10.0 mi SW 11.5 mph - N/A   Clear
5:58 PM 81.5 °F 81.0 °F 55.2 °F 40% 29.97 in 10.0 mi WSW 11.5 mph - N/A   Clear
6:58 PM 77.7 °F - 58.3 °F 51% 29.98 in 10.0 mi West 11.5 mph - N/A   Clear
7:58 PM 72.7 °F - 59.0 °F 62% 29.99 in 10.0 mi West 12.7 mph - N/A   Clear
8:58 PM 69.1 °F - 55.0 °F 61% 30.01 in 10.0 mi West 5.8 mph - N/A   Mostly Cloudy
9:58 PM 68.2 °F - 51.8 °F 56% 30.02 in 10.0 mi SW 5.8 mph - N/A   Mostly Cloudy
10:58 PM 67.1 °F - 51.6 °F 57% 30.03 in 10.0 mi WNW 1.2 mph - N/A   Partly Cloudy
11:58 PM 62.4 °F - 54.0 °F 74% 30.03 in 10.0 mi SSE 4.6 mph - N/A   Clear